Regional Weather Roundup
Issued by NWS

Home | Current Version | Previous Version | Graphics & Text | Print | Product List | Glossary On
Versions: 1 2 3 4 5 6 7 8 9 10 11 12 13 14 15 16 17 18 19 20 21 22 23 24 25 26 27 28 29 30 31 32 33 34 35 36 37 38 39 40 41 42 43 44 45 46 47 48 49 50
288
ASUS43 KFSD 190110
RWRSD

WEATHER ROUNDUP FOR SOUTH DAKOTA
NATIONAL WEATHER SERVICE SIOUX FALLS SD
700 PM CST WED JAN 18 2017

NOTE: "FAIR" INDICATES FEW OR NO CLOUDS BELOW 12,000 FEET WITH NO
SIGNIFICANT WEATHER AND/OR OBSTRUCTIONS TO VISIBILITY.


SDZ001>005-009-010-012>017-190200-
NORTHWEST AND NORTH CENTRAL SOUTH DAKOTA

CITY           SKY/WX    TMP DP  RH WIND       PRES   REMARKS
BUFFALO          N/A     35  23  61 NW14      29.57R WCI  26
FAITH            N/A     25  19  78 S7        29.62F WCI  17
MOBRIDGE       CLOUDY    24  17  74 SE8       29.65R WCI  15
$$

SDZ012>016-024>037-041>051-057-063-072>074-190200-
SOUTHWEST AND SOUTH CENTRAL SOUTH DAKOTA

CITY           SKY/WX    TMP DP  RH WIND       PRES   REMARKS
RAPID CTY ARPT CLOUDY    28  22  78 CALM      29.61F
PIERRE         CLOUDY    22  18  85 NE6       29.68S WCI  14
CUSTER         CLOUDY    42  15  33 W5        29.68F
ELLSWORTH AFB  CLEAR     32  25  74 SW3       29.60F
PHILIP         CLOUDY    26  22  84 CALM      29.65S
PINE RIDGE     CLOUDY    37  28  70 W5        29.66F
SPEARFISH      FAIR      39  28  65 SW5       29.63S
WINNER         FAIR      46  24  42 S12       29.68F
$$

SDZ004>011-016>023-039-040-190200-
NORTHEAST SOUTH DAKOTA

CITY           SKY/WX    TMP DP  RH WIND       PRES   REMARKS
ABERDEEN       CLOUDY    25  20  81 S10       29.72F WCI  15
WATERTOWN      CLOUDY    30  27  88 SE9       29.74F WCI  22
BROOKINGS      CLOUDY    34  32  92 S13       29.75F WCI  25
SISSETON         N/A     32  28  85 S6        29.72R WCI  26
$$

SDZ017-020-022-023-036>040-048>070-190200-
SOUTHEAST SOUTH DAKOTA

CITY           SKY/WX    TMP DP  RH WIND       PRES   REMARKS
SIOUX FALLS    CLEAR     41  38  89 S12       29.79F
HURON          CLEAR     33  31  92 SE9       29.71F WCI  25
CHAMBERLAIN    CLOUDY    40  31  69 E6        29.69F
MITCHELL       CLOUDY    39  35  86 SE10      29.74S
YANKTON        CLEAR     39  36  87 S9        29.79S
$$

ABBREVIATIONS USED IN REMARKS
   TC - TEMPERATURE IN CELSIUS
  WCI - WIND CHILL INDEX
   HX - HEAT INDEX
  VSB - VISIBILITY





USA.gov is the U.S. government's official web portal to all federal, state and local government web resources and services.